Humidity-temperature Sensor

Selected Measurement Type: Relative Humidity

 
Relative Humidity [%]     6 entries per hour
Showing data from 8/28/2022 (00:00:00 Z) to 8/25/2022 (00:01:00 Z)
Previous Next [ Day | 3-Days | 7-Days ]
First Last
Prev [ Day | 3-Days | 7-Days ] Next
First Last

Start Time:     :
End Time:     :     
Time (in GMT) :00 :50 :40 :30 :20 :10
Previous Next [ Day | 3-Days | 7-Days ]
First Last
Prev [ Day | 3-Days | 7-Days ] Next
First Last


123 => good data
MM => data is determined as missing
-- => data not received/configured
Back to Top Back to Top
8/28/2022 00:00 to 23:10 89.28 89.32 89.26 88.93 89.11 89.34
8/27/2022 23:00 to 22:10 89.11 88.62 88.40 88.54 88.93 89.32
8/27/2022 22:00 to 21:10 89.03 88.85 88.50 88.54 88.70 88.99
8/27/2022 21:00 to 20:10 89.22 89.34 90.31 90.18 89.87 88.72
8/27/2022 20:00 to 19:10 88.83 88.40 88.44 88.40 89.20 89.38
8/27/2022 19:00 to 18:10 89.24 88.97 89.03 89.03 88.66 88.66
8/27/2022 18:00 to 17:10 88.54 88.70 88.95 89.03 89.28 89.59
8/27/2022 17:00 to 16:10 89.46 89.20 89.11 89.46 89.73 89.94
8/27/2022 16:00 to 15:10 89.92 90.24 90.78 91.05 91.23 91.09
8/27/2022 15:00 to 14:10 91.09 90.78 90.47 89.94 89.36 88.52
8/27/2022 14:00 to 13:10 88.56 88.66 88.97 89.50 90.00 89.81
8/27/2022 13:00 to 12:10 89.77 89.94 90.00 89.75 89.75 88.95
8/27/2022 12:00 to 11:10 88.70 88.81 89.11 89.24 88.87 88.44
8/27/2022 11:00 to 10:10 88.40 88.29 88.05 88.15 88.54 88.93
8/27/2022 10:00 to 9:10 89.11 88.52 88.37 87.94 87.84 87.61
8/27/2022 09:00 to 8:10 88.00 88.56 88.60 88.50 88.74 88.89
8/27/2022 08:00 to 7:10 88.27 88.21 88.48 88.72 89.22 88.68
8/27/2022 07:00 to 6:10 88.70 88.64 88.83 89.20 89.38 89.28
8/27/2022 06:00 to 5:10 89.40 88.79 88.00 87.33 87.06 87.24
8/27/2022 05:00 to 4:10 87.39 87.53 87.80 88.09 88.11 87.68
8/27/2022 04:00 to 3:10 87.80 87.68 87.82 88.37 88.31 88.35
8/27/2022 03:00 to 2:10 88.31 88.15 87.66 87.18 87.66 87.74
8/27/2022 02:00 to 1:10 87.78 87.45 87.61 87.43 87.51 87.14
8/27/2022 01:00 to 0:10 86.73 86.69 86.67 86.32 85.93 85.74
8/27/2022 00:00 to 23:10 86.18 86.67 86.44 87.04 87.63 87.35
8/26/2022 23:00 to 22:10 87.51 86.94 86.61 85.56 85.60 85.31
8/26/2022 22:00 to 21:10 85.91 86.63 87.04 87.33 87.31 87.29
8/26/2022 21:00 to 20:10 86.75 86.03 85.89 86.11 86.53 86.55
8/26/2022 20:00 to 19:10 86.38 86.13 86.40 86.22 86.96 86.79
8/26/2022 19:00 to 18:10 85.48 85.52 86.34 87.86 89.55 90.45
8/26/2022 18:00 to 17:10 91.52 92.42 92.85 94.23 94.79 94.52
8/26/2022 17:00 to 16:10 93.76 92.67 91.77 90.78 90.22 90.53
8/26/2022 16:00 to 15:10 90.35 90.84 91.35 92.14 92.44 92.36
8/26/2022 15:00 to 14:10 92.36 92.22 91.89 90.41 87.59 86.57
8/26/2022 14:00 to 13:10 86.69 86.77 86.30 86.53 86.20 86.09
8/26/2022 13:00 to 12:10 85.85 86.07 86.73 87.06 87.29 87.18
8/26/2022 12:00 to 11:10 86.94 85.91 85.17 84.18 85.35 85.99
8/26/2022 11:00 to 10:10 86.65 86.73 87.14 87.26 87.33 87.68
8/26/2022 10:00 to 9:10 88.31 88.58 88.58 88.62 88.62 88.40
8/26/2022 09:00 to 8:10 88.27 88.03 87.80 87.49 87.57 87.18
8/26/2022 08:00 to 7:10 87.68 88.13 88.23 87.74 88.03 88.31
8/26/2022 07:00 to 6:10 88.50 88.03 88.33 88.56 88.42 88.07
8/26/2022 06:00 to 5:10 87.98 87.92 87.74 87.14 86.96 86.59
8/26/2022 05:00 to 4:10 85.79 85.70 85.85 85.72 85.95 85.99
8/26/2022 04:00 to 3:10 85.95 85.60 85.97 86.32 86.57 86.42
8/26/2022 03:00 to 2:10 86.07 85.72 85.87 86.03 85.79 85.68
8/26/2022 02:00 to 1:10 85.93 86.07 86.11 86.26 86.05 85.52
8/26/2022 01:00 to 0:10 85.72 85.64 85.97 86.03 86.07 86.03
8/26/2022 00:00 to 23:10 86.28 86.46 86.26 86.22 86.40 86.46
8/25/2022 23:00 to 22:10 86.59 85.97 85.85 85.70 85.66 85.74
8/25/2022 22:00 to 21:10 85.52 85.70 85.91 85.99 86.20 86.81
8/25/2022 21:00 to 20:10 87.29 87.61 87.61 87.55 87.10 86.83
8/25/2022 20:00 to 19:10 86.20 85.50 85.31 85.35 85.48 85.99
8/25/2022 19:00 to 18:10 86.40 86.46 86.55 86.69 86.32 86.53
8/25/2022 18:00 to 17:10 86.65 86.85 87.10 87.14 86.46 86.03
8/25/2022 17:00 to 16:10 85.37 84.35 83.55 83.18 83.46 83.42
8/25/2022 16:00 to 15:10 83.53 83.42 83.40 83.46 84.86 84.63
8/25/2022 15:00 to 14:10 84.00 83.18 82.58 82.48 82.42 82.50
8/25/2022 14:00 to 13:10 82.81 83.09 83.55 83.65 84.41 84.47
8/25/2022 13:00 to 12:10 84.51 84.45 84.26 84.82 84.98 84.94
8/25/2022 12:00 to 11:10 85.00 85.15 86.07 86.34 86.26 86.67
8/25/2022 11:00 to 10:10 86.98 86.69 86.01 85.76 85.56 85.23
8/25/2022 10:00 to 9:10 85.58 85.89 86.26 87.14 87.88 87.82
8/25/2022 09:00 to 8:10 87.20 85.79 84.82 86.11 86.05 86.26
8/25/2022 08:00 to 7:10 87.24 86.96 86.77 87.00 87.29 86.61
8/25/2022 07:00 to 6:10 86.20 85.81 84.88 85.29 87.00 86.98
8/25/2022 06:00 to 5:10 85.97 86.55 86.96 87.55 87.61 87.37
8/25/2022 05:00 to 4:10 86.75 86.90 87.20 87.12 86.18 86.50
8/25/2022 04:00 to 3:10 85.81 85.76 85.48 84.59 84.82 84.43
8/25/2022 03:00 to 2:10 84.10 84.14 84.90 85.42 85.85 85.76
8/25/2022 02:00 to 1:10 85.76 86.48 86.83 86.34 85.31 85.56
8/25/2022 01:00 to 0:10 85.83 86.11 85.74 85.05 84.92 84.31